Torna al catalogo

STARLINK-36104

AttivoComunicazioniVLEO
NORAD 66964·PAYLOAD·🇺🇸 United States

Lanciato Dec 8, 2025 da Cape Canaveral Space Force Station

Loading…

Prossimi Passaggi (prossime 24 ore)

TLE

AggiornatoSource: CelesTrak SupGP

Epoca: Sep 14, 2026, 21:22 UTC

1 66964C 25288F   26257.89076389  .00051959  00000+0  18819-2 0  2572
2 66964  43.0041  35.2636 0001755 274.7017 300.1599 15.27552819    19

Traccia STARLINK-36104 in tempo reale con AllMySat

Download on the App Store